Weather History for Pensacola NAS, FL

Change the Weather History Date:

Wednesday, February 13, 2013

  Actual Average Record
Temperature  
Mean Temperature 58 °F -  
Max Temperature 69 °F 63 °F 104 °F (2003)
Min Temperature 46 °F 45 °F 25 °F (2006)
Degree Days  
Heating Degree Days 8    
Growing Degree Days 8 (Base 50)    
Moisture  
Dew Point 52 °F    
Average Humidity 85    
Maximum Humidity 96    
Minimum Humidity 56    
Precipitation  
Precipitation 0.04 in - - ()
Sea Level Pressure  
Sea Level Pressure 29.92 in    
Wind  
Wind Speed 8 mph (NW)    
Max Wind Speed 15 mph    
Max Gust Speed 23 mph    
Visibility 9 miles    
Events Rain    
Averages and records for this station are not official NWS values.
T = Trace of Precipitation, MM = Missing Value Source: NWS Daily Summary

Daily Weather History Graph

Daily Weather History Graph

Search for Another Location

Airport:

Trip Planner

Search our weather history database for the weather conditions in past years. The results will help you decide how hot, cold, wet, or windy it might be!

Date:

Astronomy

Feb. 13, 2013 Rise Set
Actual Time 6:31 AM CST 5:36 PM CST
Civil Twilight 6:06 AM CST 6:00 PM CST
Nautical Twilight 5:38 AM CST 6:29 PM CST
Astronomical Twilight 5:10 AM CST 6:57 PM CST
Moon 8:19 AM CST (2/13) 9:16 PM CST (2/13)
Length of Visible Light 11h 54m
Length of Day
11h 05m
Waxing Crescent, 14% of the Moon is Illuminated
Feb 13
Waxing Crescent
Feb 17
First Quarter
Feb 25
Full
Mar 4
Last Quarter
Mar 11
New

Hourly Weather History & Observations

Time (CST) Temp. Dew Point Humidity Pressure Visibility Wind Dir Wind Speed Gust Speed Precip Events Conditions
12:56 AM 69.1 °F 66.9 °F 93% 29.80 in 7.0 mi WSW 10.4 mph - 0.00 in   Overcast
1:56 AM 68.0 °F 66.9 °F 96% 29.80 in 6.0 mi WSW 8.1 mph - N/A   Overcast
2:56 AM 68.0 °F 66.0 °F 93% 29.82 in 8.0 mi West 8.1 mph - N/A   Overcast
3:04 AM 68.0 °F 66.2 °F 94% 29.81 in 8.0 mi West 8.1 mph 17.3 mph N/A   Overcast
3:15 AM 68.0 °F 66.2 °F 94% 29.81 in 8.0 mi West 10.4 mph 17.3 mph N/A   Overcast
3:28 AM 68.0 °F 64.4 °F 88% 29.81 in 8.0 mi West 8.1 mph - N/A   Mostly Cloudy
3:44 AM 66.2 °F 64.4 °F 94% 29.82 in 8.0 mi West 8.1 mph - N/A   Partly Cloudy
3:56 AM 66.9 °F 64.0 °F 90% 29.82 in 8.0 mi West 6.9 mph - N/A   Scattered Clouds
4:56 AM 64.9 °F 60.1 °F 84% 29.85 in 10.0 mi WNW 8.1 mph 20.7 mph N/A   Scattered Clouds
5:56 AM 61.0 °F 54.0 °F 78% 29.87 in 10.0 mi WNW 6.9 mph - N/A   Mostly Cloudy
6:56 AM 57.9 °F 54.0 °F 87% 29.88 in 10.0 mi NW 6.9 mph - N/A   Mostly Cloudy
7:56 AM 60.1 °F 52.0 °F 75% 29.89 in 10.0 mi NW 9.2 mph 21.9 mph N/A   Mostly Cloudy
8:56 AM 61.0 °F 51.1 °F 70% 29.90 in 10.0 mi NW 10.4 mph 19.6 mph N/A   Mostly Cloudy
9:56 AM 61.0 °F 45.0 °F 56% 29.93 in 10.0 mi NW 10.4 mph 16.1 mph N/A   Mostly Cloudy
10:56 AM 59.0 °F 46.0 °F 62% 29.96 in 10.0 mi NW 10.4 mph 18.4 mph N/A   Overcast
11:56 AM 57.0 °F 46.9 °F 69% 29.94 in 10.0 mi Variable 6.9 mph - N/A   Overcast
12:18 PM 57.2 °F 48.2 °F 72% 29.95 in 10.0 mi NW 8.1 mph - 0.00 in Rain Light Rain
12:56 PM 55.0 °F 48.9 °F 80% 29.94 in 10.0 mi NNW 6.9 mph - 0.00 in   Overcast
1:56 PM 55.0 °F 48.0 °F 77% 29.92 in 10.0 mi NNW 11.5 mph - N/A   Overcast
2:56 PM 53.1 °F 46.0 °F 77% 29.95 in 10.0 mi WNW 10.4 mph - 0.00 in Rain Light Rain
3:18 PM 50.0 °F 48.2 °F 94% 29.95 in 10.0 mi NW 15.0 mph 23.0 mph 0.00 in Rain Light Rain
3:56 PM 48.9 °F 46.9 °F 93% 29.96 in 10.0 mi NW 10.4 mph - 0.00 in Rain Light Rain
4:33 PM 48.2 °F 46.4 °F 93% 29.97 in 10.0 mi NNW 8.1 mph - 0.02 in Rain Light Rain
4:56 PM 46.9 °F 45.0 °F 93% 29.96 in 10.0 mi NNW 9.2 mph - 0.02 in Rain Light Rain
5:56 PM 48.0 °F 45.0 °F 89% 29.97 in 10.0 mi North 6.9 mph - 0.02 in   Mostly Cloudy
6:56 PM 48.0 °F 46.0 °F 93% 29.98 in 10.0 mi NNE 3.5 mph - N/A   Mostly Cloudy
7:56 PM 48.0 °F 45.0 °F 89% 30.02 in 10.0 mi Calm Calm - N/A   Scattered Clouds
8:56 PM 48.0 °F 46.0 °F 93% 30.05 in 10.0 mi WSW 3.5 mph - N/A   Scattered Clouds
9:56 PM 48.0 °F 45.0 °F 89% 30.06 in 10.0 mi WNW 4.6 mph - N/A   Scattered Clouds
10:56 PM 48.0 °F 44.1 °F 86% 30.06 in 10.0 mi NNW 6.9 mph - N/A   Clear
11:56 PM 46.9 °F 44.1 °F 90% 30.06 in 10.0 mi North 4.6 mph - N/A   Partly Cloudy